Weather History for KSHN - November, 2013

Change the Weather History Date:

Saturday, November 16, 2013

  Actual Average (KOLM) Record (KOLM)
Temperature  
Mean Temperature 42 °F 43 °F  
Max Temperature 48 °F 50 °F 64 °F (1949)
Min Temperature 37 °F 36 °F 18 °F (1961)
Degree Days  
Heating Degree Days 22 22  
Month to date heating degree days 322  
Since 1 July heating degree days 1116  
Cooling Degree Days 0 0  
Month to date cooling degree days 0  
Year to date cooling degree days 106  
Moisture  
Dew Point 36 °F    
Average Humidity 78    
Maximum Humidity 96    
Minimum Humidity 61    
Precipitation  
Precipitation 0.00 in 0.30 in 1.97 in (1956)
Month to date precipitation 4.37  
Year to date precipitation 38.28  
Sea Level Pressure  
Sea Level Pressure 29.57 in    
Wind  
Wind Speed 14 mph (SW)    
Max Wind Speed 21 mph    
Max Gust Speed 32 mph    
Visibility 10 miles    
Events Rain    
T = Trace of Precipitation, MM = Missing Value Source: NWS Daily Summary

Daily Weather History Graph

Daily Weather History Graph

Search for Another Location

Airport or City:

Trip Planner

Search our weather history database for the weather conditions in past years. The results will help you decide how hot, cold, wet, or windy it might be!

Date:

Astronomy

Nov. 16, 2013 Rise Set
Actual Time 7:18 AM PST 4:35 PM PST
Civil Twilight 6:45 AM PST 5:09 PM PST
Nautical Twilight 6:07 AM PST 5:46 PM PST
Astronomical Twilight 5:31 AM PST 6:22 PM PST
Moon 4:16 PM PST (11/16) 6:17 AM PST (11/16)
Length of Visible Light 10h 24m
Length of Day
9h 17m
Waxing Gibbous, 99% of the Moon is Illuminated
Nov 16
Waxing Gibbous
Nov 17
Full
Nov 25
Last Quarter
Dec 2
New
Dec 9
First Quarter

Hourly Weather History & Observations

Time (PST) Temp. Windchill Dew Point Humidity Pressure Visibility Wind Dir Wind Speed Gust Speed Precip Events Conditions
12:14 AM 44.1 °F 36.2 °F 39.0 °F 82% 29.39 in 10.0 mi SW 18.4 mph 23.0 mph N/A   Overcast
12:21 AM 44.1 °F 37.1 °F 37.9 °F 79% 29.39 in 10.0 mi WSW 15.0 mph 28.8 mph N/A   Overcast
12:53 AM 43.0 °F 34.2 °F 37.9 °F 82% 29.40 in 10.0 mi SW 20.7 mph 27.6 mph N/A   Mostly Cloudy
1:53 AM 42.1 °F 33.6 °F 37.0 °F 82% 29.41 in 10.0 mi WSW 18.4 mph 25.3 mph N/A   Partly Cloudy
2:53 AM 42.1 °F 35.2 °F 36.0 °F 79% 29.43 in 10.0 mi WSW 12.7 mph - N/A   Partly Cloudy
3:53 AM 42.1 °F 36.6 °F 36.0 °F 79% 29.44 in 10.0 mi SSW 9.2 mph 19.6 mph N/A   Partly Cloudy
4:53 AM 41.0 °F 34.3 °F 35.1 °F 79% 29.47 in 10.0 mi SSW 11.5 mph - N/A   Clear
5:53 AM 41.0 °F 34.7 °F 35.1 °F 79% 29.48 in 10.0 mi SW 10.4 mph - N/A   Clear
6:53 AM 41.0 °F 33.5 °F 35.1 °F 79% 29.49 in 10.0 mi WSW 13.8 mph - N/A   Clear
7:53 AM 41.0 °F 33.5 °F 35.1 °F 79% 29.52 in 10.0 mi SW 13.8 mph - N/A   Clear
8:53 AM 44.1 °F 37.1 °F 36.0 °F 73% 29.53 in 10.0 mi WSW 15.0 mph - N/A   Clear
9:53 AM 46.0 °F 38.3 °F 37.0 °F 71% 29.54 in 10.0 mi SW 20.7 mph 31.1 mph N/A   Clear
10:53 AM 46.0 °F 38.8 °F 37.0 °F 71% 29.58 in 10.0 mi WSW 18.4 mph - N/A   Partly Cloudy
11:53 AM 46.9 °F - 36.0 °F 66% 29.58 in 10.0 mi SW 19.6 mph 28.8 mph N/A   Clear
12:53 PM 48.0 °F - 35.1 °F 61% 29.58 in 10.0 mi WSW 16.1 mph 28.8 mph N/A   Partly Cloudy
1:53 PM 46.9 °F - 35.1 °F 63% 29.61 in 10.0 mi WSW 18.4 mph 24.2 mph N/A   Scattered Clouds
2:53 PM 45.0 °F 38.2 °F 36.0 °F 71% 29.62 in 10.0 mi WSW 15.0 mph 32.2 mph N/A   Mostly Cloudy
3:53 PM 45.0 °F 38.5 °F 36.0 °F 71% 29.64 in 10.0 mi WSW 13.8 mph - N/A   Overcast
4:53 PM 44.1 °F 37.4 °F 36.0 °F 73% 29.66 in 10.0 mi SW 13.8 mph - N/A   Overcast
5:53 PM 41.0 °F 35.2 °F 37.0 °F 86% 29.68 in 10.0 mi SW 9.2 mph - 0.00 in   Overcast
6:53 PM 39.9 °F 33.9 °F 36.0 °F 86% 29.70 in 10.0 mi SW 9.2 mph - N/A   Partly Cloudy
7:53 PM 39.9 °F 36.7 °F 36.0 °F 86% 29.72 in 10.0 mi SSW 4.6 mph - N/A   Mostly Cloudy
8:53 PM 41.0 °F 35.2 °F 36.0 °F 82% 29.74 in 10.0 mi SW 9.2 mph - N/A   Mostly Cloudy
9:53 PM 41.0 °F 37.1 °F 37.0 °F 86% 29.76 in 10.0 mi SW 5.8 mph - 0.00 in   Overcast
10:53 PM 37.9 °F - 36.0 °F 93% 29.77 in 10.0 mi Calm Calm - 0.00 in   Mostly Cloudy
11:53 PM 39.0 °F - 37.9 °F 96% 29.79 in 10.0 mi Calm Calm - 0.00 in Rain Light Rain